1287273625133,0.563323
1287273685133,0.558880
1287273745133,0.567900
1287273805133,0.560577
1287273865133,0.557709
1287273925133,0.555771
1287273985133,0.560008
1287274045133,0.557082
1287274105133,0.567016
1287274165133,0.559729
1287274225133,0.562866
1287274285133,0.562913
1287274345133,0.563227
1287274405133,0.564510
1287274465133,0.559061
1287274525133,0.560987
1287274585133,0.561477
1287274645133,0.558467
1287274705133,0.556192
1287274765133,0.560788
1287274825133,0.561248
1287274885133,0.559760
1287274945133,0.553022
1287275005133,0.559197
1287275065133,0.558525
1287275125133,0.556168
1287275185133,0.556932
1287275245133,0.560600
1287275305133,0.558568
1287275365133,0.566637
1287275425133,0.563328
1287275485133,0.567816
1287275545133,0.570384
1287275605133,0.579571
1287275665133,0.579068
1287275725133,0.576358
1287275785133,0.582922
1287275845133,0.576922
1287275905133,0.576505
1287275965133,0.573103
1287276025133,0.565615
1287276085133,0.569569
1287276145133,0.569323
1287276205133,0.568486
1287276265133,0.566115
1287276325133,0.559807
1287276385133,0.566202
1287276445133,0.564542
1287276505133,0.563018
1287276565133,0.563231
1287276625133,0.555843
1287276685133,0.562067
1287276745133,0.558822
1287276805133,0.566738
1287276865133,0.559314
1287276925133,0.565919
1287276985133,0.563721
1287277045133,0.561307
1287277105133,0.564537
1287277165133,0.560028
1287277225144,0.554476
1287277285144,0.564601
1287277345144,0.562705
1287277405144,0.565229
1287277465144,0.565853
1287277525144,0.558677
1287277585144,0.558812
1287277645144,0.564682
1287277705144,0.559649
1287277765144,0.563743
1287277825144,0.565003
1287277885144,0.563196
1287277945144,0.560953
1287278005144,0.559215
1287278065144,0.567973
1287278125144,0.559838
1287278185144,0.566896
1287278245144,0.564991
1287278305144,0.562044
1287278365144,0.555494
1287278425144,0.557657
1287278485144,0.559503
1287278545144,0.557203
1287278605144,0.556404
1287278665144,0.560235
1287278725144,0.557014
1287278785144,0.558117
1287278845144,0.559440
1287278905144,0.554154
1287278965144,0.564047
1287279025144,0.558215
1287279085144,0.562225
1287279145144,0.560357
1287279205144,0.559041
1287279265144,0.557839
1287279325144,0.560265
1287279385144,0.562463
1287279445144,0.555049
1287279505144,0.557438
1287279565144,0.558918
1287279625144,0.558769
1287279685144,0.557237
1287279745144,0.562087
1287279805144,0.559677
1287279865144,0.554521
1287279925144,0.559530
1287279985144,0.555935
1287280045144,0.552595
1287280105144,0.555139
1287280165144,0.559357
1287280225144,0.562654
1287280285144,0.564048
1287280345144,0.559486
1287280405144,0.557885
1287280465144,0.556546
1287280525144,0.560723
1287280585144,0.553928
1287280645144,0.563638
1287280705144,0.554767
1287280765144,0.555036
1287280825155,0.555023
1287280885155,0.554620
1287280945155,0.563534
1287281005155,0.556055
1287281065155,0.554586
1287281125155,0.555959
1287281185155,0.560738
1287281245155,0.555756
1287281305155,0.562179
1287281365155,0.558358
1287281425155,0.557272
1287281485155,0.558653
1287281545155,0.555441
1287281605155,0.557986
1287281665155,0.557175
1287281725155,0.555931
1287281785155,0.561159
1287281845155,0.558912
1287281905155,0.560167
1287281965155,0.560442
1287282025155,0.556229
1287282085155,0.555848
1287282145155,0.564313
1287282205155,0.557727
1287282265155,0.561227
1287282325155,0.555199
1287282385155,0.563470
1287282445155,0.556801
1287282505155,0.558756
1287282565155,0.564311
1287282625155,0.562480
1287282685155,0.558422
1287282745155,0.555651
1287282805155,0.565587
1287282865155,0.556617
1287282925155,0.556536
1287282985155,0.559342
1287283045155,0.561416
1287283105155,0.560770
1287283165155,0.560968
1287283225155,0.566594
1287283285155,0.559937
1287283345155,0.561110
1287283405155,0.561530
1287283465155,0.562211
1287283525155,0.564122
1287283585155,0.564451
1287283645155,0.560723
1287283705155,0.557031
1287283765155,0.563253
1287283825155,0.561915
1287283885155,0.562617
1287283945155,0.564313
1287284005155,0.556867
1287284065155,0.561448
1287284125155,0.561415
1287284185155,0.566082
1287284245155,0.554321
1287284305155,0.564977
1287284365155,0.562562
1287284425165,0.564956
1287284485165,0.559227
1287284545165,0.565868
1287284605165,0.561225
1287284665165,0.563237
1287284725165,0.559059
1287284785165,0.563898
1287284845165,0.562051
1287284905165,0.559885
1287284965165,0.561992
1287285025165,0.561534
1287285085165,0.566354
1287285145165,0.559999
1287285205165,0.559359
1287285265165,0.555439
1287285325165,0.564077
1287285385165,0.560841
1287285445165,0.560602
1287285505165,0.554771
1287285565165,0.551619
1287285625165,0.562419
1287285685165,0.555315
1287285745165,0.555576
1287285805165,0.559079
1287285865165,0.554863
1287285925165,0.563138
1287285985165,0.563502
1287286045165,0.562485
1287286105165,0.556200
1287286165165,0.558986
1287286225165,0.562955
1287286285165,0.559292
1287286345165,0.562945
1287286405165,0.563276
1287286465165,0.558040
1287286525165,0.559179
1287286585165,0.562144
1287286645165,0.561312
1287286705165,0.556422
1287286765165,0.563336
1287286825165,0.557983
1287286885165,0.560848
1287286945165,0.554034
1287287005165,0.563398
1287287065165,0.559217
1287287125165,0.563211
1287287185165,0.564503
1287287245165,0.556796
1287287305165,0.557375
1287287365165,0.556147
1287287425165,0.558922
1287287485165,0.558570
1287287545165,0.562028
1287287605165,0.559083
1287287665165,0.562618
1287287725165,0.563596
1287287785165,0.557380
1287287845165,0.555937
1287287905165,0.567033
1287287965165,0.560294
1287288025175,0.559730
1287288085175,0.562422
1287288145175,0.561919
1287288205175,0.568487
1287288265175,0.569374
1287288325175,0.567364
1287288385175,0.571041
1287288445175,0.573428
1287288505175,0.566868
1287288565175,0.560861
1287288625175,0.568224
1287288685175,0.568128
1287288745175,0.572520
1287288805175,0.568093
1287288865175,0.572757
1287288925175,0.569261
1287288985176,0.574311
1287289045176,0.570964
1287289105176,0.576797
1287289165176,0.579041
1287289225176,0.579715
1287289285175,0.576111
1287289345175,0.580216
1287289405175,0.578041
1287289465175,0.573139
1287289525175,0.573742
1287289585175,0.572798
1287289645175,0.575530
1287289705175,0.574213
1287289765175,0.571742
1287289825175,0.570085
1287289885175,0.564734
1287289945175,0.564757
1287290005175,0.565417
1287290065175,0.568771
1287290125175,0.565230
1287290185175,0.562086
1287290245175,0.560982
1287290305175,0.565697
1287290365176,0.566355
1287290425176,0.560571
1287290485176,0.562656
1287290545176,0.566314
1287290605175,0.563012
1287290665175,0.565265
1287290725175,0.561141
1287290785175,0.555505
1287290845175,0.560385
1287290905175,0.555168
1287290965175,0.556957
1287291025175,0.557125
1287291085175,0.557754
1287291145175,0.555279
1287291205175,0.555838
1287291265175,0.564320
1287291325175,0.553520
1287291385175,0.555622
1287291445175,0.553138
1287291505175,0.558366
1287291565175,0.562616
1287291625186,0.556478
1287291685186,0.556031
1287291745186,0.559941
1287291805186,0.555316
1287291865186,0.556435
1287291925186,0.554976
1287291985186,0.559877
1287292045186,0.554320
1287292105186,0.555859
1287292165186,0.561283
1287292225186,0.553080
1287292285186,0.565163
1287292345186,0.558487
1287292405186,0.555724
1287292465186,0.558242
1287292525186,0.553842
1287292585186,0.558633
1287292645186,0.549843
1287292705186,0.560886
1287292765186,0.555772
1287292825186,0.567237
1287292885186,0.550565
1287292945186,0.560114
1287293005186,0.556827
1287293065186,0.555960
1287293125186,0.554536
1287293185186,0.560959
1287293245186,0.555836
1287293305186,0.559015
1287293365186,0.556205
1287293425186,0.552981
1287293485186,0.558659
1287293545186,0.554228
1287293605186,0.553000
1287293665186,0.551029
1287293725186,0.553285
1287293785186,0.557153
1287293845186,0.562878
1287293905186,0.559128
1287293965186,0.557770
1287294025186,0.556290
1287294085186,0.562275
1287294145186,0.561234
1287294205186,0.556744
1287294265186,0.556844
1287294325186,0.560463
1287294385186,0.560202
1287294445186,0.562231
1287294505186,0.561411
1287294565186,0.559057
1287294625186,0.559546
1287294685186,0.559521
1287294745186,0.558802
1287294805186,0.564080
1287294865186,0.557480
1287294925186,0.557421
1287294985186,0.562366
1287295045186,0.565694
1287295105186,0.561723
1287295165186,0.562899
1287295225197,0.564569
1287295285197,0.564352
1287295345197,0.556171
1287295405197,0.557486
1287295465197,0.557568
1287295525197,0.561815
1287295585197,0.561271
1287295645197,0.560859
1287295705197,0.554972
1287295765197,0.558646
1287295825197,0.556523
1287295885197,0.562478
1287295945197,0.555543
1287296005197,0.565168
1287296065197,0.557738
1287296125197,0.557598
1287296185197,0.564597
1287296245197,0.563050
1287296305197,0.557142
1287296365197,0.559516
1287296425197,0.563021
1287296485197,0.562128
1287296545197,0.557581
1287296605197,0.559608
1287296665197,0.559209
1287296725197,0.559116
1287296785197,0.557799
1287296845197,0.562451
1287296905197,0.563888
1287296965197,0.552740
1287297025197,0.564475
1287297085197,0.553181
1287297145197,0.555604
1287297205197,0.557237
1287297265197,0.560607
1287297325197,0.567145
1287297385197,0.561760
1287297445197,0.561240
1287297505197,0.565412
1287297565197,0.564578
1287297625197,0.567761
1287297685197,0.561221
1287297745197,0.560653
1287297805197,0.562210
1287297865197,0.561265
1287297925197,0.560133
1287297985197,0.568215
1287298045197,0.561728
1287298105197,0.564681
1287298165197,0.561940
1287298225197,0.556318
1287298285197,0.562243
1287298345197,0.562231
1287298405197,0.565005
1287298465197,0.563988
1287298525197,0.562781
1287298585197,0.563505
1287298645197,0.565509
1287298705197,0.563143
1287298765197,0.558431
1287298825207,0.565247
1287298885207,0.565412
1287298945207,0.555412
1287299005207,0.564627
1287299065207,0.566900
1287299125207,0.563618
1287299185207,0.561002
1287299245207,0.559492
1287299305207,0.564481
1287299365207,0.561814
1287299425207,0.564956
1287299485207,0.561436
1287299545207,0.556007
1287299605207,0.566303
1287299665207,0.560711
1287299725207,0.561479
1287299785207,0.564321
1287299845207,0.559808
1287299905207,0.558709
1287299965207,0.557895
1287300025207,0.562661
1287300085207,0.563840
1287300145207,0.558222
1287300205207,0.566227
1287300265207,0.562383
1287300325207,0.562389
1287300385207,0.561613
1287300445207,0.564496
1287300505207,0.566326
1287300565207,0.558697
1287300625207,0.564633
1287300685207,0.563055
1287300745207,0.560066
1287300805207,0.557740
1287300865207,0.563529
1287300925207,0.558595
1287300985207,0.568105
1287301045207,0.555833
1287301105207,0.558988
1287301165207,0.562713
1287301225207,0.560507
1287301285207,0.565078
1287301345207,0.560607
1287301405207,0.563688
1287301465207,0.560001
1287301525207,0.560374
1287301585207,0.566094
1287301645207,0.557683
1287301705207,0.556768
1287301765207,0.563671
1287301825207,0.560688
1287301885207,0.560987
1287301945207,0.561301
1287302005207,0.568696
1287302065207,0.567577
1287302125207,0.561974
1287302185207,0.561709
1287302245207,0.561311
1287302305207,0.558382
1287302365207,0.560915
1287302425218,0.562721
1287302485218,0.560165
1287302545218,0.567374
1287302605218,0.559999
1287302665218,0.558624
1287302725218,0.565050
1287302785218,0.560099
1287302845218,0.564833
1287302905218,0.565528
1287302965218,0.565378
1287303025218,0.566967
1287303085218,0.565294
1287303145218,0.564924
1287303205218,0.562154
1287303265218,0.563800
1287303325218,0.559798
1287303385218,0.566929
1287303445218,0.568010
1287303505218,0.552770
1287303565218,0.563008
1287303625218,0.566328
1287303685218,0.560990
1287303745218,0.558376
1287303805218,0.564083
1287303865218,0.560733
1287303925218,0.564896
1287303985218,0.565566
1287304045218,0.560187
1287304105218,0.566306
1287304165218,0.564106
1287304225218,0.567555
1287304285218,0.564384
1287304345218,0.570763
1287304405218,0.567124
1287304465218,0.570444
1287304525218,0.570119
1287304585218,0.566926
1287304645218,0.565985
1287304705218,0.558806
1287304765218,0.569907
1287304825218,0.565718
1287304885218,0.561821
1287304945218,0.562514
1287305005218,0.562162
1287305065218,0.560406
1287305125218,0.564201
1287305185218,0.563885
1287305245218,0.565859
1287305305218,0.567436
1287305365218,0.563435
1287305425218,0.568132
1287305485218,0.566772
1287305545218,0.564834
1287305605218,0.569003
1287305665218,0.572621
1287305725218,0.584554
1287305785218,0.594518
1287305845218,0.613422
1287305905218,0.625226
1287305965218,0.628121
1287306025229,0.629790
1287306085229,0.640076
1287306145229,0.633522
1287306205229,0.631844
1287306265229,0.633654
1287306325229,0.624938
1287306385229,0.621648
1287306445229,0.623954
1287306505229,0.620096
1287306565229,0.615515
1287306625229,0.611819
1287306685229,0.599130
1287306745229,0.602093
1287306805229,0.599096
1287306865229,0.597272
1287306925229,0.588532
1287306985229,0.584618
1287307045229,0.577388
1287307105229,0.581333
1287307165229,0.577022
1287307225229,0.580199
1287307285229,0.575948
1287307345229,0.566342
1287307405229,0.572778
1287307465229,0.566567
1287307525229,0.573927
1287307585229,0.569992
1287307645229,0.569395
1287307705229,0.568547
1287307765229,0.564674
1287307825229,0.575683
1287307885229,0.570342
1287307945229,0.572238
1287308005229,0.570862
1287308065229,0.566709
1287308125229,0.564495
1287308185229,0.568512
1287308245229,0.566212
1287308305229,0.565760
1287308365229,0.569768
1287308425229,0.571393
1287308485229,0.575254
1287308545229,0.565342
1287308605229,0.561834
1287308665229,0.564767
1287308725229,0.566211
1287308785229,0.565791
1287308845229,0.561042
1287308905229,0.562517
1287308965229,0.562948
1287309025229,0.564556
1287309085229,0.560446
1287309145229,0.561721
1287309205229,0.566477
1287309265229,0.567204
1287309325229,0.557334
1287309385229,0.560645
1287309445229,0.559437
1287309505229,0.564797
1287309565229,0.559688
1287313225252,0.617276
1287313285252,0.608691
1287313345252,0.607433
1287313405252,0.609234
1287313465252,0.602614
1287313525252,0.601568
1287313585252,0.592611
1287313645252,0.591722
1287313705252,0.583393
1287313765252,0.584273
1287313825252,0.589190
1287313885252,0.587303
1287313945252,0.583238
1287314005252,0.575814
1287314065252,0.578669
1287314125252,0.569388
1287314185252,0.576346
1287314245252,0.563308
1287314305252,0.572687
1287314365252,0.569711
1287314425252,0.567865
1287314485252,0.570768
1287314545252,0.571503
1287314605252,0.573699
1287314665252,0.573001
1287314725252,0.568282
1287314785252,0.566076
1287314845252,0.572128
1287314905252,0.567015
1287314965252,0.565772
1287315025252,0.573469
1287315085252,0.569101
1287315145252,0.563357
1287315205252,0.564043
1287315265252,0.564886
1287315325252,0.569385
1287315385252,0.562311
1287315445252,0.566674
1287315505252,0.566570
1287315565252,0.572592
1287315625252,0.565371
1287315685252,0.570059
1287315745252,0.571123
1287315805252,0.570686
1287315865252,0.572084
1287315925252,0.570642
1287315985252,0.569880
1287316045252,0.565641
1287316105252,0.565305
1287316165252,0.558661
1287316225252,0.569841
1287316285252,0.566835
1287316345252,0.561411
1287316405252,0.565812
1287316465252,0.564884
1287316525252,0.561959
1287316585252,0.565120
1287316645252,0.562803
1287316705252,0.567949
1287316765252,0.564541
1287316825263,0.562666
1287316885263,0.554915
1287316945263,0.569305
1287317005263,0.568063
1287317065263,0.563101
1287317125263,0.568376
1287317185263,0.563418
1287317245263,0.568595
1287317305263,0.574453
1287317365263,0.564621
1287317425263,0.568734
1287317485263,0.562988
1287317545263,0.565144
1287317605263,0.569320
1287317665263,0.567097
1287317725263,0.568303
1287317785263,0.565572
1287317845263,0.568166
1287317905263,0.563198
1287317965263,0.566302
1287318025263,0.567577
1287318085263,0.569877
1287318145263,0.561822
1287318205263,0.564633
1287318265263,0.574962
1287318325263,0.567467
1287318385263,0.562690
1287318445263,0.568035
1287318505263,0.567362
1287318565263,0.569363
1287318625263,0.569215
1287318685263,0.569208
1287318745263,0.572584
1287318805263,0.572560
1287318865263,0.571851
1287318925263,0.575318
1287318985263,0.577823
1287319045263,0.573541
1287319105263,0.574307
1287319165263,0.577081
1287319225263,0.572343
1287319285263,0.574481
1287319345263,0.568343
1287319405263,0.573015
1287319465263,0.572740
1287319525263,0.570712
1287319585263,0.574766
1287319645263,0.572257
1287319705263,0.576733
1287319765263,0.572327
1287319825263,0.580119
1287319885263,0.577579
1287319945263,0.575797
1287320005263,0.579528
1287320065263,0.585253
1287320125263,0.583294
1287320185263,0.583836
1287320245263,0.577735
1287320305263,0.575627
1287320365263,0.579533
1287320425275,0.584773
1287320485275,0.578986
1287320545275,0.576928
1287320605275,0.577601
1287320665275,0.574862
1287320725275,0.576074
1287320785275,0.583313
1287320845275,0.568659
1287320905275,0.579959
1287320965275,0.572813
1287321025275,0.571128
1287321085275,0.578371
1287321145275,0.569260
1287321205275,0.569674
1287321265275,0.570037
1287321325275,0.571374
1287321385275,0.566819
1287321445275,0.569393
1287321505275,0.571672
1287321565275,0.574958
1287321625275,0.574085
1287321685275,0.571158
1287321745275,0.573148
1287321805275,0.583024
1287323005275,0.570303
1287323065275,0.580619
1287323125275,0.580605
1287323185275,0.579021
1287323245275,0.580180
1287323305275,0.577351
1287323365275,0.574516
1287323425275,0.571273
1287323485275,0.575777
1287323545275,0.578972
1287323605275,0.578946
1287323665275,0.573528
1287323725275,0.576145
1287323785275,0.573319
1287323845275,0.573647
1287323905275,0.576227
1287323965275,0.572187
1287324025287,0.570233
1287324085287,0.573527
1287324145287,0.574659
1287324205287,0.576771
1287324265287,0.575685
1287324325287,0.572733
1287324385287,0.571882
1287324445287,0.574477
1287324505287,0.577701
1287324565287,0.578950
1287324625287,0.581822
1287324685287,0.577398
1287324745287,0.582057
1287324805287,0.580021
1287324865287,0.581951
1287324925287,0.584766
1287324985287,0.583805
1287325045287,0.580494
1287325105287,0.584188
1287325165287,0.577048
1287325225287,0.579071
1287325285287,0.582463
1287325345287,0.582666
1287325405287,0.574596
1287325465287,0.578003
1287325525287,0.573993
1287325585287,0.584551
1287325645287,0.575564
1287325705287,0.568624
1287325765287,0.570996
1287325825287,0.573601
1287325885287,0.571083
1287325945287,0.567559
1287326005287,0.579673
1287326065287,0.575314
1287326125287,0.576715
1287326185287,0.575743
1287326245287,0.577642
1287326305287,0.578923
1287326365287,0.571216
1287326425287,0.572786
1287326485287,0.574101
1287326545287,0.575165
1287326605287,0.569386
1287326665287,0.576009
1287326725287,0.578501
1287326785287,0.580122
1287326845287,0.567874
1287326905287,0.577895
1287326965287,0.574158
1287327025287,0.573875
1287327085287,0.573741
1287327145287,0.572344
1287327205287,0.579742
1287327265287,0.578657
1287327325287,0.581818
1287327385287,0.573782
1287327445287,0.571443
1287327505287,0.572984
1287327565287,0.579091
1287327625299,0.573704
1287327685299,0.573631
1287327745299,0.573077
1287327805299,0.569858
1287327865299,0.572462
1287327925299,0.570918
1287327985299,0.575683
1287328045299,0.569861
1287328105299,0.569043
1287328165299,0.571571
1287328225299,0.574750
1287328285299,0.571797
1287328345299,0.571380
1287328405299,0.570159
1287328465299,0.566921
1287328525299,0.567897
1287328585299,0.565436
1287328645299,0.569666
1287328705299,0.569239
1287328765299,0.569766
1287328825299,0.570619
1287328885299,0.575105
1287328945299,0.565938
1287329005299,0.565232
1287329065299,0.575259
1287329125299,0.563003
1287329185299,0.563311
1287329245299,0.567266
1287329305299,0.565086
1287329365299,0.567862
1287329425299,0.566198
1287329485299,0.572105
1287329545299,0.569148
1287329605299,0.564647
1287329665299,0.567822
1287329725299,0.569702
1287329785299,0.571832
1287329845299,0.570715
1287329905299,0.564320
1287329965299,0.565255
1287330025299,0.568858
1287330085299,0.569944
1287330145299,0.568322
1287330205299,0.571161
1287330265299,0.570416
1287330325299,0.568180
1287330385299,0.563774
1287330445299,0.566901
1287330505299,0.561933
1287330565299,0.564643
1287330625299,0.575243
1287330685299,0.569575
1287330745299,0.566588
1287330805299,0.567559
1287330865299,0.570080
1287330925299,0.568952
1287330985299,0.572984
1287331045299,0.567588
1287331105299,0.570686
1287331165299,0.566499
1287331225311,0.568119
1287331285311,0.568176
1287331345311,0.574986
1287331405311,0.572277
1287331465311,0.564839
1287331525311,0.567381
1287331585311,0.565965
1287331645311,0.566269
1287331705311,0.573059
1287331765311,0.578756
1287331825311,0.568791
1287331885311,0.572577
1287331945311,0.567029
1287332005311,0.572377
1287332065311,0.569614
1287332125311,0.567730
1287332185311,0.571241
1287332245311,0.569041
1287332305311,0.568950
1287332365311,0.574606
1287332425311,0.572302
1287332485311,0.569522
1287332545311,0.573834
1287332605311,0.571577
1287332665311,0.571973
1287332725311,0.572550
1287332785311,0.575502
1287332845311,0.574171
1287332905311,0.576959
1287332965311,0.571922
1287333025311,0.572105
1287333085311,0.571492
1287333145311,0.572879
1287333205311,0.572888
1287333265311,0.575120
1287333325311,0.572227
1287333385311,0.570296
1287333445311,0.573942
1287333505311,0.579572
1287333565311,0.570739
1287333625311,0.567440
1287333685311,0.569260
1287333745311,0.572472
1287333805311,0.564424
1287333865311,0.562648
1287333925311,0.567087
1287333985311,0.569640
1287334045311,0.562369
1287334105311,0.566374
1287334165311,0.573842
1287334225311,0.574469
1287334285311,0.574614
1287334345311,0.563708
1287334405311,0.570797
1287334465311,0.565215
1287334525311,0.563878
1287334585311,0.572531
1287334645311,0.571342
1287334705311,0.567939
1287334765311,0.565838
1287334825324,0.564631
1287334885324,0.575413
1287334945324,0.575232
1287335005324,0.576361
1287335065324,0.572973
1287335125324,0.564674
1287335185324,0.563587
1287335245324,0.567170
1287335305324,0.569454
1287335365324,0.572946
1287335425324,0.568593
1287335485324,0.571649
1287335545324,0.571953
1287335605324,0.569690
1287335665324,0.571467
1287335725324,0.577262
1287335785324,0.572132
1287335845324,0.566285
1287335905324,0.572433
1287335965324,0.563962
1287336025324,0.570772
1287336085324,0.566914
1287336145324,0.573761
1287336205324,0.573307
1287336265324,0.571539
1287336325324,0.568977
1287336385324,0.569829
1287336445324,0.573896
1287336505324,0.568721
1287336565324,0.570024
1287336625324,0.572782
1287336685324,0.568173
1287336745324,0.570358
1287336805324,0.572422
1287336865324,0.576370
1287336925324,0.574813
1287336985324,0.580369
1287337045324,0.596957
1287337105324,0.614584
1287337165324,0.617784
1287337225324,0.621234
1287337285324,0.626409
1287337345324,0.629085
1287337405324,0.633013
1287337465324,0.623986
1287337525324,0.624364
1287337585324,0.620458
1287337645324,0.614799
1287337705324,0.610452
1287337765324,0.603330
1287337825324,0.602227
1287337885324,0.595840
1287337945324,0.589806
1287338005324,0.582901
1287338065324,0.580447
1287338125324,0.583372
1287338185324,0.576050
1287338245324,0.574031
1287338305324,0.568190
1287338365324,0.581873
1287338425336,0.569898
1287338485336,0.568947
1287338545336,0.573365
1287338605336,0.577484
1287338665336,0.570536
1287338725336,0.563877
1287338785336,0.573491
1287338845336,0.573726
1287338905336,0.571154
1287338965336,0.570381
1287339025336,0.570744
1287339085336,0.567617
1287339145336,0.569449
1287339205336,0.565060
1287339265336,0.569704
1287339325336,0.573338
1287339385336,0.570749
1287339445336,0.572963
1287339505336,0.572363
1287339565336,0.568179
1287339625336,0.569892
1287339685336,0.570371
1287339745336,0.570308
1287339805336,0.567342
1287339865336,0.566706
1287339925336,0.567484
1287339985336,0.567354
1287340045336,0.565271
1287340105336,0.568909
1287340165336,0.564383
1287340225336,0.567325
1287340285336,0.563966
1287340345336,0.564438
1287340405336,0.569068
1287340465336,0.572882
1287340525336,0.570980
1287340585336,0.564997
1287340645336,0.571907
1287340705336,0.570275
1287340765336,0.568515
1287340825336,0.567007
1287340885336,0.565171